TimeEDT,TemperatureF,Dew PointF,Humidity,Sea Level PressureIn,VisibilityMPH,Wind Direction,Wind SpeedMPH,Gust SpeedMPH,PrecipitationIn,Events,Conditions,WindDirDegrees,DateUTC
12:20 AM,78.1,73.9,87,29.81,7.0,WNW,8.1,-,N/A,,Partly Cloudy,300,2013-07-25 04:20:00
12:56 AM,77.0,72.0,84,29.82,9.0,NW,9.2,-,N/A,,Clear,320,2013-07-25 04:56:00
1:56 AM,75.9,71.1,85,29.81,10.0,NNW,3.5,-,N/A,,Clear,330,2013-07-25 05:56:00
2:56 AM,73.9,69.1,85,29.80,10.0,North,8.1,-,N/A,,Clear,360,2013-07-25 06:56:00
3:56 AM,73.9,69.1,85,29.80,10.0,North,5.8,-,N/A,,Clear,10,2013-07-25 07:56:00
4:56 AM,72.0,69.1,91,29.81,10.0,WSW,5.8,-,N/A,,Clear,240,2013-07-25 08:56:00
5:56 AM,72.0,69.1,91,29.83,10.0,West,5.8,-,N/A,,Overcast,260,2013-07-25 09:56:00
6:56 AM,72.0,70.0,93,29.84,9.0,Calm,Calm,-,N/A,,Mostly Cloudy,0,2013-07-25 10:56:00
7:56 AM,73.9,70.0,87,29.86,10.0,NW,3.5,-,N/A,,Scattered Clouds,310,2013-07-25 11:56:00
8:56 AM,78.1,71.1,79,29.88,10.0,North,9.2,-,N/A,,Mostly Cloudy,350,2013-07-25 12:56:00
9:56 AM,79.0,71.1,77,29.88,10.0,NNW,6.9,-,N/A,,Mostly Cloudy,340,2013-07-25 13:56:00
10:26 AM,79.0,72.0,79,29.89,8.0,North,6.9,-,N/A,,Mostly Cloudy,10,2013-07-25 14:26:00
10:56 AM,79.0,73.0,82,29.90,7.0,NE,4.6,-,N/A,,Mostly Cloudy,40,2013-07-25 14:56:00
11:56 AM,84.0,73.9,72,29.91,8.0,Calm,Calm,-,N/A,,Mostly Cloudy,0,2013-07-25 15:56:00
12:03 PM,84.9,73.0,67,29.91,9.0,Calm,Calm,-,N/A,,Mostly Cloudy,0,2013-07-25 16:03:00
12:19 PM,84.9,73.9,69,29.90,9.0,Calm,Calm,-,N/A,,Scattered Clouds,0,2013-07-25 16:19:00
12:56 PM,87.1,73.9,65,29.91,10.0,SSE,3.5,-,N/A,,Mostly Cloudy,150,2013-07-25 16:56:00
1:56 PM,88.0,71.1,57,29.90,10.0,Calm,Calm,-,N/A,,Mostly Cloudy,0,2013-07-25 17:56:00
2:56 PM,90.0,72.0,55,29.90,10.0,Calm,Calm,-,N/A,,Mostly Cloudy,0,2013-07-25 18:56:00
3:56 PM,90.0,72.0,55,29.89,10.0,Calm,Calm,-,N/A,,Mostly Cloudy,0,2013-07-25 19:56:00
4:56 PM,91.9,71.1,50,29.89,10.0,NNE,8.1,-,N/A,,Mostly Cloudy,20,2013-07-25 20:56:00
5:56 PM,82.0,70.0,67,29.89,5.0,West,10.4,-,0.00,Rain,Rain,270,2013-07-25 21:56:00
6:41 PM,87.1,70.0,57,29.89,10.0,WSW,4.6,-,0.00,Thunderstorm,Mostly Cloudy,250,2013-07-25 22:41:00
6:56 PM,88.0,72.0,59,29.90,10.0,Calm,Calm,-,0.00,Thunderstorm,Mostly Cloudy,0,2013-07-25 22:56:00
7:56 PM,81.0,68.0,65,29.93,10.0,Variable,3.5,-,N/A,Thunderstorm,Mostly Cloudy,0,2013-07-25 23:56:00
8:56 PM,79.0,69.1,72,29.95,10.0,South,4.6,-,N/A,,Mostly Cloudy,170,2013-07-26 00:56:00
9:56 PM,78.1,68.0,71,29.96,10.0,NNE,4.6,-,N/A,,Scattered Clouds,20,2013-07-26 01:56:00
10:56 PM,77.0,69.1,76,29.98,10.0,Calm,Calm,-,N/A,,Partly Cloudy,0,2013-07-26 02:56:00
11:56 PM,75.0,70.0,84,29.99,10.0,NNE,3.5,-,N/A,,Clear,20,2013-07-26 03:56:00